Home   Weather   Leutkirch im Allgäu   Past weeks

Flag for Germany Past Weather in Leutkirch im Allgäu, Baden-Württemberg, Germany — Yesterday and Last 2 Weeks

Now
16 °F

Ice fog.


Feels Like: 8 °F
Forecast: 7 / 31 °F
Wind: 5 mph from Northeast

Location: Friedrichshafen Airport

Current Time: Jan 22, 2017 at 11:38:37 am

Latest Report: Jan 22, 2017 at 10:50 am


Visibility: 2 mi

Pressure: 30.30 "Hg (27.83 "Hg at 656m altitude)

Humidity: 93%

Dew Point: 14 °F

Location of Leutkirch im AllgäuLocation

Past Weather in Leutkirch im Allgäu — Graph

°F

Leutkirch im Allgäu Temperature Yesterday

Maximum temperature yesterday: 23 °F (at 1:20 pm)
Minimum temperature yesterday: 16 °F (at 11:20 pm)
Average temperature yesterday: 19 °F

High & Low Weather Summary for the Past Weeks

 TemperatureHumidityPressure
High43 °F (Jan 12, 12:50 pm)100% (Jan 8, 1:20 am)30.57 "Hg (Jan 8, 1:20 am)
Low10 °F (Jan 20, 5:20 am)64% (Jan 18, 12:20 pm)29.47 "Hg (Jan 13, 12:20 am)
Average27 °F85%30.18 "Hg
* Reported Jan 7 10:05 am — Jan 22 10:20 am, Leutkirch im Allgäu, Weather by CustomWeather, © 2017

Note: Actual official high and low records may vary slightly from our data, if they occured in-between our weather recording intervals... More about our weather records

Advertising

Leutkirch im Allgäu Weather History for the Previous 24 Hours

Scroll right to see more
 ConditionsComfort  
Time TempWeatherWind HumidityBarometerVisibility
10:20 am
Sun, Jan 22
14 °FIce fog.5 mph92%30.30 "Hg2 mi
9:50 am14 °FIce fog.6 mph92%30.30 "Hg1 mi
9:20 am14 °FIce fog.7 mph92%30.30 "Hg1 mi
8:50 am14 °FIce fog.6 mph92%30.30 "Hg1 mi
8:20 am14 °FIce fog.6 mph92%30.30 "Hg2 mi
7:50 am14 °FIce fog.7 mph92%30.27 "Hg2 mi
6:50 am14 °FIce fog.6 mph85%30.30 "Hg2 mi
6:20 am12 °FIce fog.6 mph92%30.30 "Hg2 mi
5:50 am12 °FIce fog.7 mph92%30.30 "Hg2 mi
5:20 am12 °FIce fog.7 mph92%30.30 "Hg2 mi
4:50 am12 °FIce fog.7 mph92%30.30 "Hg2 mi
4:20 am12 °FIce fog.8 mph92%30.30 "Hg3 mi
3:58 am14 °FIce fog.7 mph85%30.30 "Hg3 mi
3:20 am14 °FIce fog.6 mph92%30.33 "Hg2 mi
2:50 am14 °FIce fog.6 mph92%30.33 "Hg2 mi
2:20 am14 °FIce fog.6 mph92%30.33 "Hg2 mi
1:50 am14 °FIce fog.6 mph92%30.33 "Hg2 mi
1:20 am14 °FIce fog.7 mph92%30.33 "Hg2 mi
12:20 am16 °FIce fog.7 mph93%30.33 "Hg2 mi
11:50 pm
Sat, Jan 21
16 °FIce fog.8 mph93%30.36 "Hg2 mi
11:20 pm16 °FIce fog.7 mph93%30.36 "Hg2 mi
10:50 pm18 °FIce fog.7 mph93%30.36 "Hg2 mi
10:20 pm18 °FIce fog.7 mph93%30.36 "Hg2 mi
9:50 pm18 °FIce fog.7 mph93%30.36 "Hg2 mi
9:20 pm18 °FIce fog.7 mph93%30.36 "Hg2 mi
8:50 pm18 °FIce fog.6 mph93%30.36 "Hg2 mi
8:20 pm19 °FIce fog.5 mph93%30.36 "Hg2 mi
7:50 pm19 °FIce fog.2 mph93%30.36 "Hg2 mi
7:20 pm19 °FIce fog.5 mph100%30.36 "Hg3 mi
6:50 pm21 °FIce fog.2 mph93%30.36 "Hg3 mi
6:20 pm21 °FIce fog.3 mph93%30.36 "Hg2 mi
5:50 pm21 °FIce fog.5 mph93%30.33 "Hg2 mi
5:20 pm21 °FIce fog.6 mph93%30.33 "Hg2 mi
4:50 pm21 °FIce fog.2 mph100%30.36 "Hg2 mi
4:20 pm21 °FIce fog.3 mph100%30.36 "Hg2 mi
3:50 pm23 °FIce fog.3 mph93%30.36 "Hg2 mi
3:20 pm23 °FIce fog.1 mph93%30.36 "Hg2 mi
2:50 pm23 °FIce fog.2 mph93%30.36 "Hg2 mi
2:20 pm23 °FIce fog.3 mph93%30.36 "Hg2 mi
1:50 pm23 °FIce fog.1 mph93%30.36 "Hg2 mi
1:20 pm23 °FIce fog.No wind93%30.39 "Hg2 mi
12:50 pm21 °FIce fog.2 mph100%30.39 "Hg2 mi
12:20 pm21 °FIce fog.1 mph100%30.39 "Hg1 mi
11:50 am21 °FIce fog.2 mph100%30.39 "Hg1 mi
11:20 am21 °FIce fog.3 mph93%30.39 "Hg1 mi
Weather by CustomWeather, © 2017

See weather overviewHow to use our weather pages